Tracking 19145 objects as of 26-Apr-2018
HD Live streaming from Space Station
objects crossing your sky now

OV1-4

Track OV1-4 now!
10-day predictions
OV1-4 is classified as:


NORAD ID: 2121
Int'l Code: 1966-025A
Perigee: 885.6 km
Apogee: 1,007.7 km
Inclination: 144.5 °
Period: 103.8 minutes
Semi major axis: 7317 km
RCS: 0.5201 m2 (medium)
Launch date: March 30, 1966
Source: United States (US)
Launch site: AIR FORCE WESTERN TEST RANGE (AFWTR)
aabbcc
Your satellite tracking list
Your tracking list is empty




NASA's NSSDC Master Catalog

Two Line Element Set (TLE):
1 02121U 66025A   18115.09873109  .00000262  00000-0 -63098-5 0  9990
2 02121 144.5026 175.4274 0083459  17.8213 342.5380 13.86894463638319
Source of the keplerian elements: AFSPC